Tracking 19212 objects as of 17-Jul-2018
HD Live streaming from Space Station
objects crossing your sky now

FENGYUN 1C DEB

Track FENGYUN 1C DEB now!
10-day predictions


NORAD ID: 30650
Int'l Code: 1999-025APH
Perigee: 831.3 km
Apogee: 953.5 km
Inclination: 99.1 °
Period: 102.7 minutes
Semi major axis: 7263 km
RCS: 0.0287 m2 (small)
Launch date: May 10, 1999
Source: People's Republic of China (PRC)
Launch site: Taiyaun Space Center, China (TSC)

Note: This is SATELLITE DEBRIS
aabbcc
Your satellite tracking list
Your tracking list is empty




NASA's NSSDC Master Catalog

Two Line Element Set (TLE):
1 30650U 99025APH 18197.85980251 +.00000152 +00000-0 +12384-3 0  9992
2 30650 099.1414 155.6383 0084116 127.6150 287.1338 14.02463460582790
Source of the keplerian elements: AFSPC